When you browse on this site, cookies collect data to enhance your experience and personalize the content and advertising you see.
Visit our Privacy Policy to learn more. By continuing to use the site, you agree to this use of cookies and data.
  • Em Portugal
  • Lista de países
  • Para 7 dias
  • Temperatura da água
  • Mapas de satélite
  • Mapa do tempo
  • Widgets de tempo
  • user-avatar
    Iniciar Sessão

    Previsão horária em Karak

    Hoje, 24 Março, Domingo

    Tempo Temperatura Precipitação Vento Pressão Humidade
    00:00 +14°C° 0.2 mm 1 m/s 674 mmHg 42%
    01:00 +14°C° 0.2 mm 1 m/s 674 mmHg 44%
    02:00 +14°C° 0 mm 1 m/s 673 mmHg 44%
    03:00 +14°C° 0 mm 1 m/s 673 mmHg 44%
    04:00 +13°C° 0 mm 2 m/s 672 mmHg 45%
    05:00 +13°C° 0 mm 2 m/s 672 mmHg 46%
    06:00 +14°C° 0 mm 2 m/s 672 mmHg 43%
    07:00 +14°C° 0 mm 2 m/s 672 mmHg 41%
    08:00 +16°C° 0 mm 2 m/s 672 mmHg 37%
    09:00 +16°C° 0 mm 3 m/s 672 mmHg 37%
    10:00 +16°C° 0 mm 5 m/s 672 mmHg 37%
    11:00 +17°C° 0 mm 6 m/s 672 mmHg 37%
    12:00 +16°C° 0 mm 7 m/s 672 mmHg 38%
    13:00 +16°C° 0 mm 7 m/s 672 mmHg 38%
    14:00 +15°C° 0 mm 8 m/s 672 mmHg 39%
    15:00 +14°C° 0 mm 7 m/s 672 mmHg 40%
    16:00 +14°C° 0 mm 7 m/s 672 mmHg 40%
    17:00 +12°C° 0 mm 7 m/s 672 mmHg 41%
    18:00 +13°C° 0 mm 6 m/s 672 mmHg 43%
    19:00 +11°C° 0 mm 6 m/s 672 mmHg 46%
    20:00 +10°C° 0 mm 6 m/s 672 mmHg 49%
    21:00 +10°C° 0 mm 5 m/s 672 mmHg 51%
    22:00 +9°C° 0 mm 5 m/s 672 mmHg 53%
    23:00 +9°C° 0 mm 5 m/s 672 mmHg 55%

    Amanhã, 25 Março, Segunda-feira

    Tempo Temperatura Precipitação Vento Pressão Humidade
    00:00 +8°C° 0 mm 5 m/s 671 mmHg 56%
    01:00 +8°C° 0 mm 5 m/s 671 mmHg 58%
    02:00 +7°C° 0 mm 5 m/s 671 mmHg 60%
    03:00 +7°C° 0 mm 4 m/s 671 mmHg 63%
    04:00 +6°C° 0 mm 4 m/s 670 mmHg 65%
    05:00 +6°C° 0 mm 4 m/s 670 mmHg 68%
    06:00 +6°C° 0 mm 5 m/s 671 mmHg 67%
    07:00 +6°C° 0 mm 5 m/s 671 mmHg 66%
    08:00 +7°C° 0 mm 6 m/s 671 mmHg 65%
    09:00 +7°C° 0.2 mm 6 m/s 672 mmHg 65%
    10:00 +7°C° 0.2 mm 6 m/s 672 mmHg 66%
    11:00 +7°C° 0.2 mm 5 m/s 672 mmHg 66%
    12:00 +8°C° 0 mm 6 m/s 672 mmHg 62%
    13:00 +8°C° 0 mm 7 m/s 672 mmHg 57%
    14:00 +9°C° 0 mm 7 m/s 672 mmHg 53%
    15:00 +9°C° 0 mm 7 m/s 673 mmHg 53%
    16:00 +8°C° 0 mm 7 m/s 673 mmHg 53%
    17:00 +8°C° 0 mm 7 m/s 673 mmHg 53%
    18:00 +7°C° 0 mm 6 m/s 674 mmHg 56%
    19:00 +7°C° 0 mm 6 m/s 674 mmHg 60%
    20:00 +6°C° 0 mm 5 m/s 675 mmHg 63%
    21:00 +6°C° 0 mm 4 m/s 675 mmHg 64%
    22:00 +5°C° 0 mm 4 m/s 675 mmHg 65%
    23:00 +5°C° 0 mm 3 m/s 676 mmHg 67%

    Depois de amanhã, 26 Março, Terça-feira

    Tempo Temperatura Precipitação Vento Pressão Humidade
    00:00 +5°C° 0 mm 3 m/s 676 mmHg 68%
    01:00 +4°C° 0 mm 3 m/s 676 mmHg 69%
    02:00 +4°C° 0 mm 3 m/s 676 mmHg 70%
    03:00 +5°C° 0 mm 2 m/s 676 mmHg 70%
    04:00 +5°C° 0 mm 2 m/s 676 mmHg 70%
    05:00 +4°C° 0 mm 2 m/s 676 mmHg 69%
    06:00 +5°C° 0 mm 2 m/s 677 mmHg 65%
    07:00 +5°C° 0 mm 3 m/s 678 mmHg 61%
    08:00 +7°C° 0 mm 3 m/s 678 mmHg 56%
    09:00 +8°C° 0 mm 3 m/s 678 mmHg 51%
    10:00 +8°C° 0 mm 4 m/s 679 mmHg 46%
    11:00 +11°C° 0 mm 4 m/s 679 mmHg 40%
    12:00 +11°C° 0 mm 4 m/s 679 mmHg 39%
    13:00 +12°C° 0 mm 5 m/s 679 mmHg 37%
    14:00 +13°C° 0 mm 5 m/s 678 mmHg 36%
    15:00 +13°C° 0 mm 5 m/s 678 mmHg 36%
    16:00 +12°C° 0 mm 5 m/s 679 mmHg 36%
    17:00 +12°C° 0 mm 5 m/s 679 mmHg 37%
    18:00 +12°C° 0 mm 4 m/s 679 mmHg 41%
    19:00 +11°C° 0 mm 4 m/s 680 mmHg 46%
    20:00 +10°C° 0 mm 4 m/s 680 mmHg 51%
    21:00 +10°C° 0 mm 3 m/s 680 mmHg 55%
    22:00 +9°C° 0 mm 3 m/s 680 mmHg 59%
    23:00 +9°C° 0 mm 3 m/s 680 mmHg 63%

    27 Março, Quarta-feira

    Tempo Temperatura Precipitação Vento Pressão Humidade
    00:00 +9°C° 0 mm 3 m/s 680 mmHg 61%
    01:00 +8°C° 0 mm 3 m/s 680 mmHg 60%
    02:00 +8°C° 0 mm 3 m/s 680 mmHg 59%
    03:00 +8°C° 0 mm 2 m/s 680 mmHg 58%
    04:00 +7°C° 0 mm 2 m/s 680 mmHg 58%
    05:00 +7°C° 0 mm 2 m/s 680 mmHg 58%
    06:00 +8°C° 0 mm 2 m/s 681 mmHg 54%
    07:00 +9°C° 0 mm 3 m/s 681 mmHg 49%
    08:00 +10°C° 0 mm 3 m/s 682 mmHg 45%
    09:00 +11°C° 0 mm 4 m/s 682 mmHg 41%
    10:00 +12°C° 0 mm 4 m/s 682 mmHg 38%
    11:00 +13°C° 0 mm 5 m/s 682 mmHg 34%
    12:00 +13°C° 0 mm 5 m/s 682 mmHg 33%
    13:00 +14°C° 0 mm 5 m/s 682 mmHg 33%
    14:00 +15°C° 0 mm 6 m/s 682 mmHg 32%
    15:00 +14°C° 0 mm 6 m/s 682 mmHg 36%
    16:00 +14°C° 0 mm 6 m/s 682 mmHg 40%
    17:00 +13°C° 0 mm 6 m/s 682 mmHg 44%
    18:00 +13°C° 0 mm 5 m/s 683 mmHg 50%
    19:00 +12°C° 0 mm 4 m/s 683 mmHg 55%
    20:00 +11°C° 0 mm 4 m/s 683 mmHg 61%
    21:00 +11°C° 0 mm 3 m/s 683 mmHg 61%
    22:00 +10°C° 0 mm 3 m/s 683 mmHg 61%
    23:00 +10°C° 0 mm 3 m/s 683 mmHg 62%

    28 Março, Quinta-feira

    Tempo Temperatura Precipitação Vento Pressão Humidade
    00:00 +10°C° 0 mm 3 m/s 683 mmHg 63%
    01:00 +9°C° 0 mm 3 m/s 683 mmHg 64%
    02:00 +9°C° 0 mm 2 m/s 682 mmHg 65%
    03:00 +8°C° 0 mm 2 m/s 682 mmHg 67%
    04:00 +8°C° 0 mm 2 m/s 682 mmHg 68%
    05:00 +8°C° 0 mm 2 m/s 682 mmHg 70%
    06:00 +9°C° 0 mm 2 m/s 683 mmHg 64%
    07:00 +10°C° 0 mm 2 m/s 683 mmHg 58%
    08:00 +10°C° 0 mm 2 m/s 684 mmHg 52%
    09:00 +13°C° 0 mm 2 m/s 684 mmHg 45%
    10:00 +14°C° 0 mm 2 m/s 684 mmHg 38%
    11:00 +14°C° 0 mm 3 m/s 684 mmHg 32%
    12:00 +16°C° 0 mm 3 m/s 683 mmHg 29%
    13:00 +17°C° 0 mm 4 m/s 683 mmHg 26%
    14:00 +18°C° 0 mm 4 m/s 683 mmHg 23%
    15:00 +17°C° 0 mm 4 m/s 682 mmHg 22%
    16:00 +17°C° 0 mm 4 m/s 682 mmHg 22%
    17:00 +17°C° 0 mm 4 m/s 682 mmHg 22%
    18:00 +16°C° 0 mm 3 m/s 682 mmHg 24%
    19:00 +15°C° 0 mm 2 m/s 682 mmHg 26%
    20:00 +15°C° 0 mm 1 m/s 682 mmHg 28%
    21:00 +14°C° 0 mm 1 m/s 681 mmHg 30%
    22:00 +13°C° 0 mm 1 m/s 681 mmHg 31%
    23:00 +13°C° 0 mm 1 m/s 681 mmHg 33%

    29 Março, Sexta-feira

    Tempo Temperatura Precipitação Vento Pressão Humidade
    00:00 +13°C° 0 mm 1 m/s 680 mmHg 32%
    01:00 +13°C° 0 mm 1 m/s 680 mmHg 32%
    02:00 +12°C° 0 mm 0 m/s 680 mmHg 32%
    03:00 +12°C° 0 mm 0 m/s 680 mmHg 32%
    04:00 +12°C° 0 mm 0 m/s 680 mmHg 33%
    05:00 +12°C° 0 mm 0 m/s 680 mmHg 33%
    06:00 +14°C° 0 mm 1 m/s 680 mmHg 30%
    07:00 +14°C° 0 mm 2 m/s 680 mmHg 27%
    08:00 +15°C° 0 mm 2 m/s 680 mmHg 25%
    09:00 +17°C° 0 mm 3 m/s 679 mmHg 23%
    10:00 +19°C° 0 mm 3 m/s 679 mmHg 22%
    11:00 +20°C° 0 mm 3 m/s 679 mmHg 20%
    12:00 +20°C° 0 mm 3 m/s 678 mmHg 21%
    13:00 +21°C° 0 mm 4 m/s 677 mmHg 22%
    14:00 +21°C° 0 mm 4 m/s 677 mmHg 23%
    15:00 +21°C° 0 mm 4 m/s 676 mmHg 24%
    16:00 +21°C° 0 mm 4 m/s 676 mmHg 25%
    17:00 +21°C° 0 mm 4 m/s 675 mmHg 26%
    18:00 +20°C° 0 mm 3 m/s 675 mmHg 29%
    19:00 +20°C° 0 mm 2 m/s 675 mmHg 32%
    20:00 +20°C° 0 mm 1 m/s 675 mmHg 35%
    21:00 +17°C° 0 mm 3 m/s 675 mmHg 43%
    22:00 +15°C° 0 mm 5 m/s 675 mmHg 52%
    23:00 +14°C° 0 mm 7 m/s 674 mmHg 61%
    Mostrar mais